Regional Weather Roundup
Issued by NWS Jackson, KY

Home | Current Version | Previous Version | Text Only | Print | Product List | Glossary On
Versions: 1 2 3 4 5 6 7 8 9 10 11 12 13 14 15 16 17 18 19 20 21 22 23 24 25 26 27 28 29 30 31 32 33 34 35 36 37 38 39 40 41 42 43 44 45 46 47 48 49 50
479
ASUS43 KJKL 290310
RWRJKL

EAST KENTUCKY HOURLY WEATHER ROUNDUP
NATIONAL WEATHER SERVICE JACKSON KY
1100 PM EDT TUE MAR 28 2017

NOTE: "FAIR" INDICATES FEW OR NO CLOUDS BELOW 12,000 FEET WITH
NO SIGNIFICANT WEATHER AND/OR OBSTRUCTIONS TO VISIBILITY.

* THESE REPORTS ARE NOT UNDER NWS QUALITY CONTROL AND MAY NOT
  REPORT WEATHER SUCH AS PRECIPITATION AND FOG.

KYZ079-080-083-085-087-088-110-112-115-119-120-290400
...EASTERN KENTUCKY...

CITY           SKY/WX    TMP DP  RH WIND       PRES   REMARKS
JACKSON        CLOUDY    58  53  84 CALM      30.09R
LONDON         CLEAR     57  51  80 CALM      30.08S
SOMERSET*      CLOUDY    57  52  82 CALM      30.10S
MONTICELLO*    CLOUDY    59  54  83 N14       30.10S
WILLIAMSBURG*  CLOUDY    57  55  94 CALM      30.09R
MIDDLESBORO*   MOCLDY    57  52  84 CALM      30.08S
HARLAN APT*    CLOUDY    59  50  72 CALM      30.08S
PIKE CO APT*   CLOUDY    56  56 100 N10       30.09R
BIG SANDY APT* CLOUDY    56  56 100 NE3       30.09S
MOREHEAD APT*  CLOUDY    55  50  82 N6        30.12R
ASHLAND*       CLOUDY    55  52  88 N7        30.09R
$$

KYZ035-036-041-042-044-050-067-078-099-290400
...CENTRAL KENTUCKY...

CITY           SKY/WX    TMP DP  RH WIND       PRES   REMARKS
MT STERLING*   CLOUDY    55  52  88 NE7       30.12S
FLEMING/MASON* CLEAR     52  48  86 N6        30.13R
DANVILLE*      CLOUDY    55  54  94 CALM      30.11R
LEXINGTON      MOCLDY    55  50  83 N9        30.11R
FRANKFORT      CLOUDY    57  49  74 NE5       30.10R
LOUISVILLE     CLOUDY    58  47  66 NE8       30.11R
LEBANON*         N/A     57  54  88 N5        30.10S
GLASGOW*       CLOUDY    59  57  92 NE3       30.08S
BOWLING GREEN  PTCLDY    54  52  93 CALM      30.07S
$$

KYZ091>093-OHZ055-061-077-WVZ005-015-034-035-042-290400
...SOUTHERN OHIO/WEST VIRGINIA...

CITY           SKY/WX    TMP DP  RH WIND       PRES   REMARKS
COVINGTON      CLOUDY    53  48  83 N5        30.13R
COLUMBUS       CLOUDY    47  41  80 N12       30.15R
DAYTON         CLOUDY    48  44  86 NE7       30.16R
WILMINGTON     CLOUDY    49  45  86 NE13      30.14R
HUNTINGTON     CLOUDY    57  51  80 NW6       30.09R
CHARLESTON     CLOUDY    59  50  72 N8        30.07R
PINEVILLE*     CLOUDY    55  52  88 MISG      30.11S
BECKLEY        LGT RAIN  53  52  96 N8        30.07R
LOGAN CO APT*  CLOUDY    55  55 100 CALM      30.08R
$$

VAZ002-007-008-TNZ017-027-036-066-071-290400
...SOUTHWEST VIRGINIA/EAST TENNESSEE...

CITY           SKY/WX    TMP DP  RH WIND       PRES   REMARKS
WISE*          CLOUDY    55  48  76 CALM      30.11R
JONESVILLE*    CLOUDY    59  54  82 CALM      30.09
ABINGDON*      CLOUDY    61  51  69 NW5       30.08R
BRISTOL        CLOUDY    62  50  64 CALM      30.06R
MORRISTOWN*    CLOUDY    61  52  72 CALM      30.05S
SEVIERVILLE*   CLEAR     59  50  72 CALM      30.05R
KNOXVILLE      PTCLDY    62  49  62 N7        30.04R
LAFOLLETTE*    CLEAR     57  50  77 CALM      30.10R
OAK RIDGE      CLEAR     59  50  72 CALM      30.06R
CROSSVILLE     CLEAR     56  48  74 N5        30.08R
NASHVILLE      CLEAR     59  53  80 NE6       30.06R
$$

...KEY TO REMARKS...
VSB - VISIBILITY IN MILES
WCI - WIND CHILL INDEX
HX  - HEAT INDEX

$$




USA.gov is the U.S. government's official web portal to all federal, state and local government web resources and services.